WB8ZTP Weather Reports


Display with metric or nautical units.
time (UTC)temp
F
wind
direction
speed
MPH
gust
MPH
rain 1hr
in
rain 24hr
in
rain mn
in
humidity
%
barometer
mb
20260904040008 72 30 0.0 0.0 0.00 0.00 0.00 88 1016.4
20260904034507 73 30 0.0 0.0 0.00 0.00 0.00 87 1016.6
20260904033006 73 30 0.0 1.0 0.00 0.00 0.00 87 1016.6
20260904031506 74 30 0.0 2.0 0.00 0.00 0.00 86 1016.8
20260904030015 74 32 0.0 3.0 0.00 0.00 0.00 86 1016.8
20260904024506 75 27 0.0 3.0 0.00 0.00 0.00 84 1016.8
20260904023005 76 40 0.0 4.0 0.00 0.00 0.00 84 1016.8
20260904021508 76 40 0.0 3.0 0.00 0.00 0.00 84 1016.9
20260904020004 76 15 0.0 2.0 0.00 0.00 0.00 83 1016.5
20260904014506 77 5 1.0 6.0 0.00 0.00 0.00 83 1016.3
20260904013002 78 338 1.0 4.0 0.00 0.00 0.00 83 1016.2
20260904011503 78 9 1.0 6.0 0.00 0.00 0.00 83 1015.8
20260904010002 77 17 2.0 7.0 0.00 0.00 0.00 87 1015.8
20260904004502 77 233 0.0 2.0 0.00 0.00 0.00 87 1015.4
20260904003001 78 233 0.0 0.0 0.00 0.00 0.00 87 1015.5
20260904001601 80 233 0.0 1.0 0.00 0.00 0.00 86 1015.4
20260904000100 81 233 0.0 2.0 0.00 0.00 0.00 84 1015.6
20260903234604 83 233 0.0 1.0 0.00 0.00 0.00 82 1015.7
20260903233059 85 233 1.0 2.0 0.00 0.00 0.00 78 1015.4
20260903231606 87 233 1.0 3.0 0.00 0.00 0.00 73 1015.1
20260903230100 89 236 0.0 4.0 0.00 0.00 0.00 70 1015.0
20260903224558 89 254 1.0 4.0 0.00 0.00 0.00 70 1014.9
20260903223058 88 191 1.0 6.0 0.00 0.00 0.00 70 1015.0
20260903221558 89 236 1.0 4.0 0.00 0.00 0.00 73 1015.1
20260903220120 89 185 1.0 5.0 0.00 0.00 0.00 67 1014.9
20260903214556 90 191 3.0 7.0 0.00 0.00 0.00 63 1014.7
20260903213055 91 219 3.0 6.0 0.00 0.00 0.00 61 1014.5
20260903211602 91 194 2.0 7.0 0.00 0.00 0.00 62 1014.2
20260903210107 91 228 3.0 7.0 0.00 0.00 0.00 60 1014.0
20260903204554 92 211 4.0 7.0 0.00 0.00 0.00 58 1014.0
20260903203050 91 192 4.0 7.0 0.00 0.00 0.00 59 1014.1
20260903201549 91 233 3.0 7.0 0.00 0.00 0.00 65 1014.3
20260903200046 89 197 2.0 4.0 0.00 0.00 0.00 70 1014.7
20260903194543 85 181 0.0 3.0 0.00 0.00 0.00 77 1015.1
20260903193041 86 181 2.0 4.0 0.00 0.00 0.00 73 1015.3
20260903191550 87 155 1.0 3.0 0.00 0.00 0.00 74 1015.5
20260903190037 89 146 1.0 6.0 0.00 0.00 0.00 67 1015.9
20260903184543 89 144 2.0 5.0 0.00 0.00 0.00 70 1016.0
20260903183037 89 128 1.0 6.0 0.00 0.00 0.00 68 1016.1
20260903181535 91 179 3.0 7.0 0.00 0.00 0.00 61 1016.0
20260903180044 91 207 1.0 7.0 0.00 0.00 0.00 65 1016.2
20260903174533 91 234 3.0 7.0 0.00 0.00 0.00 61 1016.5
20260903173030 91 179 3.0 7.0 0.00 0.00 0.00 65 1016.6
20260903171528 90 236 3.0 7.0 0.00 0.00 0.00 64 1016.8
20260903170026 89 325 2.0 6.0 0.00 0.00 0.00 67 1016.8
20260903164523 88 192 3.0 7.0 0.00 0.00 0.00 67 1016.9
20260903163019 88 322 1.0 6.0 0.00 0.00 0.00 73 1016.9
20260903161518 87 188 4.0 9.0 0.00 0.00 0.00 72 1017.2
20260903160017 87 305 2.0 5.0 0.00 0.00 0.00 73 1017.1
20260903154514 86 232 1.0 5.0 0.00 0.00 0.00 75 1017.2
20260903153010 85 169 2.0 5.0 0.00 0.00 0.00 75 1017.3
20260903151507 85 283 3.0 8.0 0.00 0.00 0.00 76 1017.2
20260903150005 84 188 2.0 6.0 0.00 0.00 0.00 77 1017.3
20260903144503 83 290 3.0 7.0 0.00 0.00 0.00 79 1017.3
20260903143109 83 224 2.0 6.0 0.00 0.00 0.00 80 1017.3
20260903141557 82 217 2.0 6.0 0.00 0.00 0.00 80 1017.3
20260903140054 81 258 1.0 4.0 0.00 0.00 0.00 81 1017.3
20260903134551 80 209 3.0 7.0 0.00 0.00 0.00 83 1017.4
20260903133051 79 178 2.0 6.0 0.00 0.00 0.00 84 1017.5
20260903131600 78 170 3.0 6.0 0.00 0.00 0.00 85 1017.5
20260903130041 77 217 2.0 6.0 0.00 0.00 0.00 87 1017.7
20260903124541 75 202 1.0 6.0 0.00 0.00 0.00 89 1017.7
20260903123041 74 191 1.0 4.0 0.00 0.00 0.00 90 1017.8
20260903121538 73 215 1.0 4.0 0.00 0.00 0.00 91 1017.7
20260903120040 72 203 1.0 4.0 0.00 0.00 0.00 91 1017.6
20260903114538 72 203 0.0 3.0 0.00 0.00 0.00 91 1017.6
20260903113041 72 203 0.0 3.0 0.00 0.00 0.00 91 1017.5
20260903111534 72 203 0.0 2.0 0.00 0.00 0.00 91 1017.4
20260903110032 72 203 0.0 2.0 0.00 0.00 0.00 90 1017.2
20260903104530 72 203 0.0 2.0 0.00 0.00 0.00 90 1017.0
20260903103027 73 203 0.0 2.0 0.00 0.00 0.00 90 1016.9
20260903101525 73 203 0.0 2.0 0.00 0.00 0.00 90 1016.9
20260903100025 73 203 0.0 3.0 0.00 0.00 0.00 90 1016.8
20260903094524 73 203 1.0 4.0 0.00 0.00 0.00 90 1016.6
20260903093029 73 229 2.0 5.0 0.00 0.00 0.00 90 1016.6
20260903091526 73 225 1.0 4.0 0.00 0.00 0.00 89 1016.6
20260903090024 73 199 1.0 4.0 0.00 0.00 0.00 89 1016.6
20260903084524 74 195 1.0 4.0 0.00 0.00 0.00 89 1016.6
20260903083019 74 200 0.0 4.0 0.00 0.00 0.00 89 1016.6
20260903081519 74 202 0.0 4.0 0.00 0.00 0.00 89 1016.5
20260903080018 74 200 1.0 4.0 0.00 0.00 0.00 89 1016.6
20260903074518 74 182 1.0 4.0 0.00 0.00 0.00 89 1016.6
20260903073016 74 182 1.0 4.0 0.00 0.00 0.00 89 1016.6
20260903071515 74 228 1.0 4.0 0.00 0.00 0.00 89 1016.7
20260903070014 75 198 1.0 3.0 0.00 0.00 0.00 88 1016.8
20260903064516 75 198 1.0 4.0 0.00 0.00 0.00 88 1016.8
20260903063010 75 193 1.0 4.0 0.00 0.00 0.00 88 1016.8
20260903061515 76 175 1.0 5.0 0.00 0.00 0.00 87 1016.9
20260903060014 76 171 1.0 4.0 0.00 0.00 0.00 86 1016.8
20260903054509 77 141 2.0 4.0 0.00 0.00 0.00 86 1016.8
20260903053006 77 203 1.0 6.0 0.00 0.00 0.00 86 1016.6
20260903051505 77 192 2.0 4.0 0.00 0.00 0.00 86 1016.4
20260903050002 76 202 1.0 4.0 0.00 0.00 0.00 87 1016.4
20260903044600 76 188 1.0 5.0 0.00 0.00 0.00 87 1016.3
20260903043058 75 191 2.0 4.0 0.00 0.00 0.00 88 1016.2
20260903041605 75 205 1.0 4.0 0.00 0.00 0.00 88 1016.1